SCP
0 -0 -0 -0 0 0 -0 -0 -0 -0 -0 -0 -0 -0 -0 -0 -0 -0 -0 -1 -0 -0 -0 -0 -0 -0 -0 -0 -0 -0 -0 -0 -0 0 0 0 0 0 0 0 0 0 0
-0 -0 -1 -0 -0 -0 -0 0 0 -0 0 -0 -0 -0 -0 -0 -0 -0 -0 -0 -0 -0 -0 -0 -0 -0 -0 -0 -0 -0 0 -0 0 0 0 0 0 0 0 0 0 0 0
-1 -0 -0 -0 -0 -0 -0 0 0 -0 0 0 -0 -0 -0 -0 -0 -0 -0 -0 -0 -0 -0 -0 -0 -0 -0 -0 -0 0 0 0 0 0 0 0 0 0 0 0 0 0 0
-0 -0 -0 -0 -0 -0 -0 0 0 0 0 -0 -0 -0 -0 -0 -0 -0 -0 -0 -0 -0 -0 -0 -0 -0 -0 0 -0 -0 -0 0 0 0 0 0 0 0 0 0 0 0 0
-0 -0 -0 -1 -0 -0 -0 -0 0 0 0 0 -0 -0 -0 -0 -0 -0 -0 -0 -0 -0 -0 -0 0 0 0 0 -0 -0 -0 -0 -0 0 0 0 0 0 0 0 0 0 0
0 0 -0 -0 -0 -0 -0 -0 -0 -0 0 0 -0 -0 -0 -0 0 0 0 0 0 0 0 0 0 0 0 0 0 -0 -0 -0 -0 0 0 0 0 0 0 0 0 0 0
1 1 0 -0 -0 -0 -0 -0 -0 0 0 -0 -0 -0 -0 0 0 0 0 0 0 0 0 0 0 0 0 0 -0 -0 -0 -0 0 0 0 0 0 0 0 0 0 0 0
1 1 1 1 0 0 0 0 -0 -0 -0 -0 -0 -0 -0 -0 0 0 0 0 0 0 0 0 0 0 0 0 -0 -0 -0 -0 0 0 0 0 0 0 0 0 0 0 0
1 1 2 1 1 1 0 0 0 -0 -0 -0 -0 -0 -0 -0 0 0 0 0 0 0 0 0 0 0 0 0 -0 -0 -0 0 0 0 0 0 0 0 0 0 0 0 0
0 1 1 1 2 1 1 0 0 0 0 0 -0 -0 0 0 0 0 0 0 0 0 0 0 0 0 0 0 -0 -0 -0 0 0 0 0 0 0 0 0 0 0 0 0
2 1 0 1 1 1 1 1 1 0 0 0 0 0 0 0 0 0 0 0 0 0 0 0 0 0 0 0 -0 0 -0 0 0 0 0 0 0 0 0 0 0 0 0
3 2 1 1 1 1 2 1 1 1 1 1 0 0 0 0 0 0 0 0 0 0 0 0 0 0 0 0 -0 0 0 0 0 0 0 0 0 0 0 0 0 0 0
2 3 2 1 1 1 2 2 2 2 1 1 1 0 0 0 0 0 0 0 0 0 0 0 0 0 0 0 0 0 0 0 0 0 0 0 0 0 0 0 0 0 0
1 3 2 2 1 0 3 2 2 2 1 1 1 0 0 0 0 0 0 0 0 0 0 0 0 0 0 0 0 0 0 0 0 0 0 0 0 0 0 0 0 0 0
0 1 2 2 2 1 3 2 2 2 1 1 1 0 0 0 0 0 0 0 0 0 0 0 0 0 0 0 0 0 0 0 0 0 0 0 0 0 0 0 0 0 0
0 0 1 2 2 2 3 2 1 1 1 1 1 1 0 0 0 0 0 0 0 0 0 0 0 0 0 0 0 -0 0 0 0 0 0 0 0 0 0 0 0 0 0
0 0 0 2 3 3 3 2 1 1 1 1 1 1 1 0 0 0 0 0 0 0 0 0 -0 0 0 0 -0 0 0 0 0 0 0 0 0 0 0 0 0 0 0
0 0 0 3 3 3 2 3 1 1 0 0 0 1 1 0 0 0 0 0 0 0 0 0 0 0 0 0 0 0 1 0 0 0 0 0 0 0 0 0 0 0 0
0 0 0 0 3 3 3 3 2 3 2 1 1 1 1 0 1 0 0 0 0 0 0 0 0 0 0 0 0 1 1 1 0 0 0 0 0 0 0 0 0 0 0
0 0 0 0 0 4 4 2 2 1 2 2 1 2 1 0 1 0 0 0 0 0 0 0 0 0 0 0 1 1 1 1 0 0 0 0 0 0 0 0 0 0 0
0 0 0 0 0 2 7 4 2 1 1 1 2 2 1 1 1 0 0 0 0 0 0 0 0 0 0 0 1 1 1 0 0 0 0 0 0 0 0 0 0 0 0
0 0 0 0 0 0 6 6 3 2 1 1 2 2 1 1 0 1 0 1 0 0 0 0 0 0 0 0 0 0 0 0 0 0 0 0 0 0 0 0 0 0 0
0 0 0 1 1 1 2 6 4 2 1 1 1 1 1 1 0 1 0 1 0 0 0 1 0 0 0 1 0 0 0 0 0 0 0 0 0 0 0 0 0 0 0
0 0 1 1 1 2 2 5 4 3 2 1 1 1 1 1 1 2 1 1 0 0 0 1 1 1 0 0 1 0 0 0 0 0 0 0 0 0 0 0 0 0 0
0 0 1 1 1 1 1 2 3 3 3 2 1 1 1 1 2 2 1 2 1 1 1 1 1 1 1 0 0 1 0 0 0 0 0 0 0 0 0 0 0 0 0
0 0 1 1 1 1 1 1 4 3 3 2 1 1 2 1 2 2 2 1 3 1 1 1 1 1 1 0 0 0 0 0 0 0 0 0 0 0 0 0 0 0 0
Wind_Speed_500mb
10 14 34 38 35 31 30 28 26 24 26 31 36 36 36 38 40 37 43 49 45 40 35 29 26 24 21 19 19 18 20 21 16 19 21 21 28 30 33 35 35 37 38
6 17 31 35 34 32 30 30 28 22 25 30 33 35 35 38 40 42 49 46 42 36 31 29 27 24 21 19 18 16 22 17 16 18 17 17 23 31 35 35 33 36 38
6 16 33 31 32 33 29 28 28 24 19 29 34 36 37 38 40 45 47 42 38 33 27 26 24 21 18 15 13 14 21 15 15 20 19 14 23 30 32 33 35 38 39
7 18 36 34 34 33 31 28 27 25 19 21 32 36 39 40 40 43 43 41 36 30 26 25 20 17 13 11 10 12 16 14 16 18 16 9 13 22 30 33 33 36 41
4 9 35 37 36 35 32 28 27 25 22 23 29 34 36 40 41 41 41 39 34 28 23 19 15 12 10 9 8 11 12 15 18 10 8 3 6 19 28 31 36 39 43
16 10 35 42 37 37 34 30 28 27 23 20 26 30 34 37 39 38 38 37 33 27 20 13 9 7 7 7 4 6 9 11 6 18 7 3 8 20 30 31 35 39 42
24 18 19 41 38 37 36 32 30 29 26 22 24 29 32 34 35 35 34 33 30 25 18 11 8 6 4 3 2 3 7 4 8 15 4 11 11 16 32 28 34 39 40
14 16 17 40 42 39 38 36 32 31 30 26 25 28 31 34 36 36 35 32 28 24 18 14 11 8 6 5 3 1 2 4 7 6 8 14 8 18 30 29 34 37 38
16 17 22 30 46 43 40 39 36 35 33 31 30 30 32 35 37 36 35 33 30 24 19 15 13 10 7 6 4 4 2 3 3 4 8 15 14 18 29 29 33 36 36
9 15 19 28 41 48 45 43 40 37 36 34 33 32 33 36 38 37 36 35 31 26 20 17 15 12 9 7 4 6 3 5 5 9 13 20 11 21 22 26 36 33 34
21 20 15 27 34 47 50 47 45 42 39 38 37 35 36 38 40 39 38 35 31 27 23 19 16 14 11 5 3 10 5 3 7 15 17 18 8 15 20 29 33 30 31
30 27 25 25 32 47 59 55 51 48 47 44 43 42 39 39 40 40 41 38 34 29 25 22 19 16 10 4 16 20 14 4 14 21 22 11 7 19 23 29 31 29 28
40 40 33 31 29 35 58 58 55 54 52 50 47 45 42 42 42 42 44 43 39 35 29 24 21 15 10 9 14 11 3 14 19 11 18 10 16 16 25 31 30 28 27
26 41 30 40 43 33 54 53 57 58 57 56 52 50 48 48 44 46 45 42 39 34 31 26 21 15 13 15 11 7 10 24 19 12 5 7 13 19 25 28 31 28 27
33 19 35 44 51 48 52 51 49 57 59 58 56 54 53 53 48 42 42 34 27 35 33 27 21 17 8 18 17 5 8 7 12 12 8 10 16 20 22 24 27 26 29
50 30 29 35 42 56 65 57 60 51 56 57 60 58 57 59 54 45 40 36 20 19 30 16 22 14 14 13 10 20 12 20 11 11 10 14 19 12 17 22 23 27 24
60 55 57 49 41 51 71 67 56 64 51 56 59 59 58 63 60 53 45 40 28 22 24 20 16 15 19 21 22 17 19 21 21 14 18 17 18 16 18 25 23 24 23
49 48 58 57 46 45 62 69 64 58 57 51 52 54 52 64 65 56 51 48 36 32 27 32 28 33 29 21 18 20 36 22 15 17 19 16 17 21 14 19 17 20 26
56 57 46 62 57 45 54 61 71 69 69 65 59 57 52 60 74 59 58 59 47 36 48 43 39 35 25 26 11 21 30 18 11 12 15 15 23 22 22 23 11 13 17
59 61 58 54 55 52 50 60 68 75 60 65 72 71 61 60 80 67 59 61 54 48 52 54 48 41 28 22 22 23 19 13 11 13 15 17 10 14 20 5 13 20 23
64 65 57 51 59 59 55 64 63 82 87 66 78 86 70 66 68 77 66 65 59 63 56 49 40 41 38 28 24 28 19 12 11 18 14 11 6 2 8 13 13 26 31
78 77 70 73 61 67 63 67 70 69 81 76 68 78 78 72 65 77 75 72 63 66 61 51 44 42 36 36 27 28 19 12 14 15 9 5 15 14 9 10 15 18 31
69 69 75 74 72 66 65 62 63 67 72 88 81 68 77 77 75 69 79 79 69 67 63 55 47 46 46 36 31 31 10 10 22 16 9 5 9 13 12 12 8 20 30
75 77 74 68 69 66 65 60 61 71 79 80 100 84 68 82 76 67 71 74 65 70 58 59 51 51 43 45 35 30 34 17 16 14 15 7 8 13 15 16 17 23 19
67 77 69 65 62 65 63 54 60 67 72 67 80 98 80 79 84 74 68 77 70 68 57 58 54 49 48 37 35 30 26 23 17 17 17 18 15 16 6 13 18 14 17
66 67 73 66 66 63 60 60 63 70 67 65 74 82 95 76 73 73 59 76 74 63 59 54 55 45 52 41 24 35 29 24 17 14 17 13 16 24 20 16 18 15 22
Wind_Direction_500mb
41 134 157 154 148 149 146 142 140 133 127 137 142 146 152 155 158 160 155 152 145 137 135 134 130 129 129 131 129 119 84 80 73 57 58 53 40 43 34 30 28 29 23
335 162 166 157 151 153 154 148 145 145 133 137 143 144 149 151 154 156 154 153 147 142 140 138 133 135 136 135 134 112 80 83 68 50 43 46 45 37 31 21 22 22 16
301 181 174 165 158 159 162 156 150 149 145 142 146 148 152 151 152 155 157 156 153 149 143 145 140 138 141 137 128 104 82 86 64 46 10 348 37 20 26 11 12 15 13
155 167 180 175 165 166 166 164 157 152 154 148 152 156 156 155 157 160 163 163 161 157 147 144 143 144 145 141 128 101 88 86 78 63 23 44 11 4 10 3 14 12 9
206 189 191 182 174 171 170 169 163 161 163 154 161 163 163 161 162 165 168 168 168 166 158 149 141 145 150 149 133 104 100 95 84 37 6 116 355 22 8 359 5 5 8
182 162 189 187 181 175 175 174 169 168 170 166 166 172 171 169 168 170 172 174 176 177 175 169 156 153 159 157 151 111 112 113 78 8 334 240 322 4 352 350 3 6 7
168 175 167 197 191 183 179 179 177 174 176 175 174 177 178 176 175 175 179 184 185 186 190 196 191 199 194 195 182 134 128 136 332 9 142 225 299 347 345 349 0 4 6
200 186 187 198 202 194 184 183 183 180 179 182 182 182 185 183 182 183 186 189 193 198 203 205 209 218 210 226 253 261 155 154 302 25 186 231 288 325 347 349 353 359 5
250 226 217 200 201 203 194 188 188 187 185 186 187 187 188 189 189 191 191 192 195 199 207 215 221 223 223 249 275 298 328 188 271 303 249 274 290 323 348 349 353 357 7
268 266 208 206 205 208 205 194 192 192 192 193 194 192 191 193 196 197 198 198 199 204 213 217 221 227 242 252 298 328 34 189 248 290 306 263 289 336 348 356 352 357 6
227 243 232 220 219 217 212 203 195 195 196 198 198 197 196 197 200 202 205 206 210 214 217 214 219 229 232 248 19 39 70 189 254 296 282 245 327 339 350 354 353 357 4
236 244 247 242 224 223 211 211 199 197 199 200 201 201 201 202 205 207 210 211 216 218 218 217 217 223 231 208 123 87 91 348 268 290 254 249 343 340 354 356 352 358 3
251 235 229 238 226 220 209 212 207 202 202 203 205 206 205 206 207 210 214 213 215 216 218 217 221 226 230 219 167 127 16 314 309 298 229 301 334 352 352 356 354 357 359
263 237 224 214 220 218 220 215 215 210 206 207 207 207 207 210 206 216 216 217 220 222 220 218 226 237 235 197 191 135 343 287 259 180 221 4 341 351 354 353 1 357 2
264 238 230 216 215 214 217 222 223 221 216 212 212 211 208 211 209 220 219 216 227 231 224 222 221 198 184 208 215 196 282 277 242 281 312 343 341 345 339 354 357 2 4
260 250 234 222 229 218 210 220 227 229 226 221 219 216 210 208 212 216 220 211 212 214 207 200 206 205 220 260 262 194 196 270 282 275 302 331 336 354 338 356 357 358 5
250 244 257 237 229 229 218 225 225 228 230 225 222 220 213 206 207 210 219 214 212 184 186 191 195 221 231 252 184 168 242 238 253 282 332 326 333 324 347 339 352 4 0
255 249 243 240 230 225 225 225 214 216 228 226 225 222 213 209 203 209 213 210 213 214 203 197 203 221 235 192 187 226 232 227 261 279 308 322 332 329 343 346 359 356 341
256 254 242 228 240 235 237 236 225 210 220 222 223 225 219 211 202 208 213 207 204 211 199 200 207 218 228 191 235 216 209 201 252 277 310 318 327 330 332 335 353 334 316
243 248 246 230 229 239 237 240 236 218 215 220 220 223 224 216 206 206 210 201 204 206 211 216 222 209 198 171 214 209 220 256 282 276 284 304 316 333 334 350 311 321 320
233 235 242 239 235 230 231 236 236 230 219 217 213 219 222 217 215 211 206 205 205 208 216 217 205 201 202 214 210 198 188 213 264 278 284 312 135 306 275 248 278 306 306
233 231 237 241 233 229 238 242 243 241 231 221 216 220 217 216 220 218 208 204 206 207 211 213 202 201 206 214 198 196 181 215 215 243 226 212 197 248 224 237 282 311 316
243 239 234 237 230 229 231 242 244 244 241 231 222 224 219 217 220 222 212 205 206 210 211 207 203 206 205 207 216 226 188 198 204 200 239 202 199 231 235 278 311 320 316
243 240 233 229 228 223 224 239 239 242 234 234 226 224 220 223 215 220 216 208 211 213 210 202 205 212 208 211 212 224 230 210 183 177 198 211 194 209 236 252 285 304 318
234 233 223 222 222 220 223 243 240 241 238 242 239 226 220 217 210 218 217 208 212 218 217 202 209 210 209 203 213 215 221 228 222 203 180 192 182 178 244 250 280 276 292
234 230 221 222 223 223 225 243 242 239 238 241 237 235 229 218 210 208 230 212 213 210 202 202 212 211 206 196 195 202 205 197 203 197 153 167 185 152 180 205 226 269 320
Wind_Speed_850mb
10 14 34 38 35 31 30 28 26 24 26 31 36 36 36 38 40 37 43 49 45 40 35 29 26 24 21 19 19 18 20 21 16 19 21 21 28 30 33 35 35 37 38
6 17 31 35 34 32 30 30 28 22 25 30 33 35 35 38 40 42 49 46 42 36 31 29 27 24 21 19 18 16 22 17 16 18 17 17 23 31 35 35 33 36 38
6 16 33 31 32 33 29 28 28 24 19 29 34 36 37 38 40 45 47 42 38 33 27 26 24 21 18 15 13 14 21 15 15 20 19 14 23 30 32 33 35 38 39
7 18 36 34 34 33 31 28 27 25 19 21 32 36 39 40 40 43 43 41 36 30 26 25 20 17 13 11 10 12 16 14 16 18 16 9 13 22 30 33 33 36 41
4 9 35 37 36 35 32 28 27 25 22 23 29 34 36 40 41 41 41 39 34 28 23 19 15 12 10 9 8 11 12 15 18 10 8 3 6 19 28 31 36 39 43
16 10 35 42 37 37 34 30 28 27 23 20 26 30 34 37 39 38 38 37 33 27 20 13 9 7 7 7 4 6 9 11 6 18 7 3 8 20 30 31 35 39 42
24 18 19 41 38 37 36 32 30 29 26 22 24 29 32 34 35 35 34 33 30 25 18 11 8 6 4 3 2 3 7 4 8 15 4 11 11 16 32 28 34 39 40
14 16 17 40 42 39 38 36 32 31 30 26 25 28 31 34 36 36 35 32 28 24 18 14 11 8 6 5 3 1 2 4 7 6 8 14 8 18 30 29 34 37 38
16 17 22 30 46 43 40 39 36 35 33 31 30 30 32 35 37 36 35 33 30 24 19 15 13 10 7 6 4 4 2 3 3 4 8 15 14 18 29 29 33 36 36
9 15 19 28 41 48 45 43 40 37 36 34 33 32 33 36 38 37 36 35 31 26 20 17 15 12 9 7 4 6 3 5 5 9 13 20 11 21 22 26 36 33 34
21 20 15 27 34 47 50 47 45 42 39 38 37 35 36 38 40 39 38 35 31 27 23 19 16 14 11 5 3 10 5 3 7 15 17 18 8 15 20 29 33 30 31
30 27 25 25 32 47 59 55 51 48 47 44 43 42 39 39 40 40 41 38 34 29 25 22 19 16 10 4 16 20 14 4 14 21 22 11 7 19 23 29 31 29 28
40 40 33 31 29 35 58 58 55 54 52 50 47 45 42 42 42 42 44 43 39 35 29 24 21 15 10 9 14 11 3 14 19 11 18 10 16 16 25 31 30 28 27
26 41 30 40 43 33 54 53 57 58 57 56 52 50 48 48 44 46 45 42 39 34 31 26 21 15 13 15 11 7 10 24 19 12 5 7 13 19 25 28 31 28 27
33 19 35 44 51 48 52 51 49 57 59 58 56 54 53 53 48 42 42 34 27 35 33 27 21 17 8 18 17 5 8 7 12 12 8 10 16 20 22 24 27 26 29
50 30 29 35 42 56 65 57 60 51 56 57 60 58 57 59 54 45 40 36 20 19 30 16 22 14 14 13 10 20 12 20 11 11 10 14 19 12 17 22 23 27 24
60 55 57 49 41 51 71 67 56 64 51 56 59 59 58 63 60 53 45 40 28 22 24 20 16 15 19 21 22 17 19 21 21 14 18 17 18 16 18 25 23 24 23
49 48 58 57 46 45 62 69 64 58 57 51 52 54 52 64 65 56 51 48 36 32 27 32 28 33 29 21 18 20 36 22 15 17 19 16 17 21 14 19 17 20 26
56 57 46 62 57 45 54 61 71 69 69 65 59 57 52 60 74 59 58 59 47 36 48 43 39 35 25 26 11 21 30 18 11 12 15 15 23 22 22 23 11 13 17
59 61 58 54 55 52 50 60 68 75 60 65 72 71 61 60 80 67 59 61 54 48 52 54 48 41 28 22 22 23 19 13 11 13 15 17 10 14 20 5 13 20 23
64 65 57 51 59 59 55 64 63 82 87 66 78 86 70 66 68 77 66 65 59 63 56 49 40 41 38 28 24 28 19 12 11 18 14 11 6 2 8 13 13 26 31
78 77 70 73 61 67 63 67 70 69 81 76 68 78 78 72 65 77 75 72 63 66 61 51 44 42 36 36 27 28 19 12 14 15 9 5 15 14 9 10 15 18 31
69 69 75 74 72 66 65 62 63 67 72 88 81 68 77 77 75 69 79 79 69 67 63 55 47 46 46 36 31 31 10 10 22 16 9 5 9 13 12 12 8 20 30
75 77 74 68 69 66 65 60 61 71 79 80 100 84 68 82 76 67 71 74 65 70 58 59 51 51 43 45 35 30 34 17 16 14 15 7 8 13 15 16 17 23 19
67 77 69 65 62 65 63 54 60 67 72 67 80 98 80 79 84 74 68 77 70 68 57 58 54 49 48 37 35 30 26 23 17 17 17 18 15 16 6 13 18 14 17
66 67 73 66 66 63 60 60 63 70 67 65 74 82 95 76 73 73 59 76 74 63 59 54 55 45 52 41 24 35 29 24 17 14 17 13 16 24 20 16 18 15 22
Wind_Direction_850mb
41 134 157 154 148 149 146 142 140 133 127 137 142 146 152 155 158 160 155 152 145 137 135 134 130 129 129 131 129 119 84 80 73 57 58 53 40 43 34 30 28 29 23
335 162 166 157 151 153 154 148 145 145 133 137 143 144 149 151 154 156 154 153 147 142 140 138 133 135 136 135 134 112 80 83 68 50 43 46 45 37 31 21 22 22 16
301 181 174 165 158 159 162 156 150 149 145 142 146 148 152 151 152 155 157 156 153 149 143 145 140 138 141 137 128 104 82 86 64 46 10 348 37 20 26 11 12 15 13
155 167 180 175 165 166 166 164 157 152 154 148 152 156 156 155 157 160 163 163 161 157 147 144 143 144 145 141 128 101 88 86 78 63 23 44 11 4 10 3 14 12 9
206 189 191 182 174 171 170 169 163 161 163 154 161 163 163 161 162 165 168 168 168 166 158 149 141 145 150 149 133 104 100 95 84 37 6 116 355 22 8 359 5 5 8
182 162 189 187 181 175 175 174 169 168 170 166 166 172 171 169 168 170 172 174 176 177 175 169 156 153 159 157 151 111 112 113 78 8 334 240 322 4 352 350 3 6 7
168 175 167 197 191 183 179 179 177 174 176 175 174 177 178 176 175 175 179 184 185 186 190 196 191 199 194 195 182 134 128 136 332 9 142 225 299 347 345 349 0 4 6
200 186 187 198 202 194 184 183 183 180 179 182 182 182 185 183 182 183 186 189 193 198 203 205 209 218 210 226 253 261 155 154 302 25 186 231 288 325 347 349 353 359 5
250 226 217 200 201 203 194 188 188 187 185 186 187 187 188 189 189 191 191 192 195 199 207 215 221 223 223 249 275 298 328 188 271 303 249 274 290 323 348 349 353 357 7
268 266 208 206 205 208 205 194 192 192 192 193 194 192 191 193 196 197 198 198 199 204 213 217 221 227 242 252 298 328 34 189 248 290 306 263 289 336 348 356 352 357 6
227 243 232 220 219 217 212 203 195 195 196 198 198 197 196 197 200 202 205 206 210 214 217 214 219 229 232 248 19 39 70 189 254 296 282 245 327 339 350 354 353 357 4
236 244 247 242 224 223 211 211 199 197 199 200 201 201 201 202 205 207 210 211 216 218 218 217 217 223 231 208 123 87 91 348 268 290 254 249 343 340 354 356 352 358 3
251 235 229 238 226 220 209 212 207 202 202 203 205 206 205 206 207 210 214 213 215 216 218 217 221 226 230 219 167 127 16 314 309 298 229 301 334 352 352 356 354 357 359
263 237 224 214 220 218 220 215 215 210 206 207 207 207 207 210 206 216 216 217 220 222 220 218 226 237 235 197 191 135 343 287 259 180 221 4 341 351 354 353 1 357 2
264 238 230 216 215 214 217 222 223 221 216 212 212 211 208 211 209 220 219 216 227 231 224 222 221 198 184 208 215 196 282 277 242 281 312 343 341 345 339 354 357 2 4
260 250 234 222 229 218 210 220 227 229 226 221 219 216 210 208 212 216 220 211 212 214 207 200 206 205 220 260 262 194 196 270 282 275 302 331 336 354 338 356 357 358 5
250 244 257 237 229 229 218 225 225 228 230 225 222 220 213 206 207 210 219 214 212 184 186 191 195 221 231 252 184 168 242 238 253 282 332 326 333 324 347 339 352 4 0
255 249 243 240 230 225 225 225 214 216 228 226 225 222 213 209 203 209 213 210 213 214 203 197 203 221 235 192 187 226 232 227 261 279 308 322 332 329 343 346 359 356 341
256 254 242 228 240 235 237 236 225 210 220 222 223 225 219 211 202 208 213 207 204 211 199 200 207 218 228 191 235 216 209 201 252 277 310 318 327 330 332 335 353 334 316
243 248 246 230 229 239 237 240 236 218 215 220 220 223 224 216 206 206 210 201 204 206 211 216 222 209 198 171 214 209 220 256 282 276 284 304 316 333 334 350 311 321 320
233 235 242 239 235 230 231 236 236 230 219 217 213 219 222 217 215 211 206 205 205 208 216 217 205 201 202 214 210 198 188 213 264 278 284 312 135 306 275 248 278 306 306
233 231 237 241 233 229 238 242 243 241 231 221 216 220 217 216 220 218 208 204 206 207 211 213 202 201 206 214 198 196 181 215 215 243 226 212 197 248 224 237 282 311 316
243 239 234 237 230 229 231 242 244 244 241 231 222 224 219 217 220 222 212 205 206 210 211 207 203 206 205 207 216 226 188 198 204 200 239 202 199 231 235 278 311 320 316
243 240 233 229 228 223 224 239 239 242 234 234 226 224 220 223 215 220 216 208 211 213 210 202 205 212 208 211 212 224 230 210 183 177 198 211 194 209 236 252 285 304 318
234 233 223 222 222 220 223 243 240 241 238 242 239 226 220 217 210 218 217 208 212 218 217 202 209 210 209 203 213 215 221 228 222 203 180 192 182 178 244 250 280 276 292
234 230 221 222 223 223 225 243 242 239 238 241 237 235 229 218 210 208 230 212 213 210 202 202 212 211 206 196 195 202 205 197 203 197 153 167 185 152 180 205 226 269 320